EW1134 Oinofyta GR current weather conditions

sailwx.info

Wind from 218 at 0 knots gusting 3

Air temperature 13.9° C
Dewpoint -5.3° C

Last reported at 2020-Jan-22 14:05 UTC.
Time now 2020-Jan-22 14:50 UTC

Location: N 38°19' E 023°39'.
View on Google Maps.

See reports from other nearby stations

  
Tides and Currents Weather Stations Pressure Air Temp Water Temp Dewpoint Dewpoint Depression Visibility Wind Speed Wind Dir Waves Ship Positions
date/time (UTC)wind fromknots sea level pressurealtimeterstation pressurevisibilityair tempwater tempwave heightnotes
2020-Jan-22 14:05 218 0 gusting 3 13.9
2020-Jan-22 14:00 233 0 gusting 3 13.9
2020-Jan-22 13:55 218 0 gusting 3 13.9
2020-Jan-22 13:50 220 0 gusting 3 13.9
2020-Jan-22 13:45 246 0 gusting 3 13.9
2020-Jan-22 13:40 247 0 gusting 3 13.9
2020-Jan-22 13:35 196 0 gusting 3 13.9
2020-Jan-22 13:30 165 0 gusting 3 13.9
2020-Jan-22 13:25 001 0 gusting 3 13.9
2020-Jan-22 13:20 054 0 gusting 3 13.9
2020-Jan-22 13:15 174 0 gusting 3 13.3
2020-Jan-22 13:10 172 0 gusting 3 13.3
2020-Jan-22 13:05 155 0 gusting 3 13.3
2020-Jan-22 13:00 051 0 gusting 3 13.3
2020-Jan-22 12:55 359 0 gusting 3 13.3
2020-Jan-22 12:50 322 0 gusting 4 13.9
2020-Jan-22 12:45 323 0 gusting 4 13.9
2020-Jan-22 12:40 309 0 gusting 5 13.3
2020-Jan-22 12:35 327 1 gusting 5 13.3
2020-Jan-22 12:30 352 2 gusting 5 13.3
2020-Jan-22 12:25 351 1 gusting 5 13.3
2020-Jan-22 12:20 005 1 gusting 5 13.3
2020-Jan-22 12:15 009 1 gusting 5 13.3
2020-Jan-22 12:10 334 0 gusting 4 13.3
2020-Jan-22 12:05 313 0 gusting 4 13.3
2020-Jan-22 12:00 330 0 gusting 4 13.3
2020-Jan-22 11:55 336 0 gusting 4 13.3
2020-Jan-22 11:50 307 1 gusting 6 13.3
2020-Jan-22 11:45 287 1 gusting 6 13.3
2020-Jan-22 11:40 275 1 gusting 5 13.3
2020-Jan-22 11:35 289 1 gusting 5 13.3
2020-Jan-22 11:30 287 1 gusting 4 12.8
2020-Jan-22 11:25 282 1 gusting 6 12.8
2020-Jan-22 11:20 283 1 gusting 6 12.8
2020-Jan-22 11:15 282 2 gusting 6 12.8
2020-Jan-22 11:10 296 1 gusting 6 12.8
2020-Jan-22 11:05 297 1 gusting 3 12.8
2020-Jan-22 11:00 278 1 gusting 4 12.8
2020-Jan-22 10:55 252 1 gusting 4 12.2
2020-Jan-22 10:50 244 1 gusting 5 12.2
2020-Jan-22 10:45 247 1 gusting 6 11.7
2020-Jan-22 10:40 247 1 gusting 6 11.7
2020-Jan-22 10:35 242 1 gusting 5 11.7
2020-Jan-22 10:30 227 1 gusting 4 11.7
2020-Jan-22 10:25 231 1 gusting 5 11.7
2020-Jan-22 10:20 248 2 gusting 6 11.1
2020-Jan-22 10:15 241 3 gusting 6 11.1
2020-Jan-22 10:10 235 2 gusting 6 11.1
2020-Jan-22 10:05 274 1 gusting 6 11.1
2020-Jan-22 10:00 280 1 gusting 4 11.1
2020-Jan-22 09:55 235 1 gusting 5 10.6
2020-Jan-22 09:50 214 2 gusting 6 10.6
2020-Jan-22 09:45 239 2 gusting 6 10.6
2020-Jan-22 09:40 246 1 gusting 5 10.6
2020-Jan-22 09:35 222 1 gusting 6 10.6
2020-Jan-22 09:30 223 2 gusting 6 10.6
2020-Jan-22 09:25 243 1 gusting 5 10.6
2020-Jan-22 09:20 274 1 gusting 6 10.0
2020-Jan-22 09:15 257 1 gusting 6 10.0
2020-Jan-22 09:10 255 1 gusting 5 10.0
2020-Jan-22 09:05 280 1 gusting 5 10.0
2020-Jan-22 09:00 278 1 gusting 4 10.0
2020-Jan-22 08:55 260 1 gusting 3 9.4
2020-Jan-22 08:50 247 1 gusting 3 9.4
2020-Jan-22 08:45 261 1 gusting 3 8.9
2020-Jan-22 08:40 260 1 gusting 3 8.9
2020-Jan-22 08:35 238 1 gusting 4 8.3
2020-Jan-22 08:30 236 1 gusting 4 7.8
2020-Jan-22 08:25 224 1 gusting 4 7.8
2020-Jan-22 08:20 212 1 gusting 3 7.2
2020-Jan-22 08:15 243 0 gusting 3 7.2
2020-Jan-22 08:10 266 1 gusting 4 7.2
2020-Jan-22 08:05 262 1 gusting 4 6.7
2020-Jan-22 08:00 261 1 gusting 4 6.1
2020-Jan-22 07:55 242 1 gusting 4 5.6
2020-Jan-22 07:50 231 1 gusting 4 5.6
2020-Jan-22 07:45 236 0 gusting 3 5.6
2020-Jan-22 07:40 261 0 gusting 5 5.6
2020-Jan-22 07:35 276 1 gusting 5 5.6
2020-Jan-22 07:30 274 0 gusting 5 5.0
2020-Jan-22 07:25 309 0 gusting 4 4.4
2020-Jan-22 07:20 334 0 gusting 3 4.4
2020-Jan-22 07:15 257 0 gusting 3 4.4
2020-Jan-22 07:10 259 1 gusting 5 3.3
2020-Jan-22 07:05 270 1 gusting 5 2.8
2020-Jan-22 07:00 279 1 gusting 5 2.8
2020-Jan-22 06:55 253 1 gusting 5 2.2
2020-Jan-22 06:50 227 1 gusting 5 2.2
2020-Jan-22 06:45 229 0 gusting 4 1.7
2020-Jan-22 06:40 216 0 gusting 3 1.7
2020-Jan-22 06:35 233 1 gusting 4 1.7
2020-Jan-22 06:30 256 1 gusting 4 1.1
2020-Jan-22 06:25 251 1 gusting 4 1.1
2020-Jan-22 06:20 235 2 gusting 4 1.1
2020-Jan-22 06:15 251 1 gusting 4 1.1
2020-Jan-22 06:10 296 2 gusting 6 1.1
2020-Jan-22 06:05 278 3 gusting 7 1.7
2020-Jan-22 06:00 265 3 gusting 7 1.7
2020-Jan-22 05:55 269 2 gusting 6 1.7
2020-Jan-22 05:50 255 2 gusting 6 1.7
2020-Jan-22 05:45 259 1 gusting 5 1.1
2020-Jan-22 05:40 270 2 gusting 5 1.1
2020-Jan-22 05:35 259 2 gusting 5 1.1
2020-Jan-22 05:30 278 1 gusting 6 1.1
2020-Jan-22 05:25 281 1 gusting 6 1.1
2020-Jan-22 05:20 267 1 gusting 6 0.6
2020-Jan-22 05:15 270 1 gusting 6 0.6
2020-Jan-22 05:10 282 1 gusting 7 0.6
2020-Jan-22 05:05 280 2 gusting 7 0.6
2020-Jan-22 05:00 286 2 gusting 6 0.6
2020-Jan-22 04:55 292 2 gusting 6 1.1
2020-Jan-22 04:50 266 3 gusting 6 1.1
2020-Jan-22 04:45 251 2 gusting 6 1.1
2020-Jan-22 04:40 271 3 gusting 7 1.1
2020-Jan-22 04:35 269 2 gusting 7 1.1
2020-Jan-22 04:30 257 2 gusting 6 1.1
2020-Jan-22 04:25 262 1 gusting 4 1.1
2020-Jan-22 04:20 267 1 gusting 4 1.1
2020-Jan-22 04:15 258 1 gusting 5 1.1
2020-Jan-22 04:10 245 2 gusting 6 1.1
2020-Jan-22 04:05 262 1 gusting 6 1.1
2020-Jan-22 04:00 272 2 gusting 6 1.1
2020-Jan-22 03:55 265 2 gusting 8 1.1
2020-Jan-22 03:50 273 2 gusting 8 1.1
2020-Jan-22 03:45 274 1 gusting 5 1.1
2020-Jan-22 03:40 251 0 gusting 4 1.1
2020-Jan-22 03:35 247 1 gusting 5 1.1
2020-Jan-22 03:30 248 1 gusting 5 0.6
2020-Jan-22 03:25 242 1 gusting 3 0.6
2020-Jan-22 03:20 234 1 gusting 4 0.6
2020-Jan-22 03:15 229 1 gusting 4 0.6
2020-Jan-22 03:10 233 1 gusting 4 0.6
2020-Jan-22 03:05 240 1 gusting 3 0.6
2020-Jan-22 03:00 230 1 gusting 3 -0.0
2020-Jan-22 02:55 229 0 gusting 2 -0.0
2020-Jan-22 02:50 237 0 gusting 2 0.6
2020-Jan-22 02:45 241 0 gusting 3 1.1
2020-Jan-22 02:40 240 1 gusting 3 1.1
2020-Jan-22 02:35 247 1 gusting 5 1.1
2020-Jan-22 02:30 246 1 gusting 5 0.6
2020-Jan-22 02:25 244 1 gusting 4 0.6
2020-Jan-22 02:20 246 1 gusting 3 0.6
2020-Jan-22 02:15 242 0 gusting 2 0.6
2020-Jan-22 02:10 236 0.6
2020-Jan-22 02:05 231 0 gusting 2 1.1
2020-Jan-22 02:00 225 1 gusting 3 1.1
2020-Jan-22 01:55 251 2 gusting 6 1.1
2020-Jan-22 01:50 277 2 gusting 6 1.1
2020-Jan-22 01:45 272 1 gusting 4 1.1
2020-Jan-22 01:40 253 1 gusting 4 1.1
2020-Jan-22 01:35 233 0 gusting 3 1.1
2020-Jan-22 01:30 236 0 gusting 3 1.1
2020-Jan-22 01:25 265 0 gusting 4 1.1
2020-Jan-22 01:20 272 0 gusting 4 1.1
2020-Jan-22 01:15 255 0 gusting 3 1.1
2020-Jan-22 01:10 247 0 gusting 2 1.1
2020-Jan-22 01:05 246 0 gusting 2 1.1
2020-Jan-22 01:00 252 0 gusting 3 1.1
2020-Jan-22 00:55 241 0 gusting 3 1.1
2020-Jan-22 00:50 223 0 gusting 3 1.7
2020-Jan-22 00:45 245 0 gusting 3 1.7
2020-Jan-22 00:40 253 1 gusting 6 1.7
2020-Jan-22 00:35 241 1 gusting 6 1.7
2020-Jan-22 00:30 239 1 gusting 4 1.1
2020-Jan-22 00:25 248 1 gusting 5 1.1
2020-Jan-22 00:20 269 2 gusting 6 1.7
2020-Jan-22 00:15 269 2 gusting 6 1.7
2020-Jan-22 00:10 266 2 gusting 6 1.1
2020-Jan-22 00:05 278 2 gusting 5 1.1
2020-Jan-22 00:00 264 1 gusting 5 1.1
2020-Jan-21 23:55 232 1 gusting 3 1.1
2020-Jan-21 23:50 226 1 gusting 4 1.1
2020-Jan-21 23:45 245 1 gusting 4 1.7
2020-Jan-21 23:40 259 1 gusting 5 1.7
2020-Jan-21 23:35 240 1 gusting 5 1.1
2020-Jan-21 23:30 228 1 gusting 4 1.1
2020-Jan-21 23:25 242 1 gusting 3 1.1
2020-Jan-21 23:20 254 0 gusting 3 1.1
2020-Jan-21 23:15 264 0 gusting 2 1.1
2020-Jan-21 23:10 272 0 gusting 3 1.1
2020-Jan-21 23:05 260 1 gusting 3 1.1
2020-Jan-21 23:00 252 0 gusting 3 1.1
2020-Jan-21 22:50 221 0 gusting 2 1.1
2020-Jan-21 22:45 222 1 gusting 3 1.1
2020-Jan-21 22:40 236 1 gusting 4 1.7
2020-Jan-21 22:35 248 1 gusting 4 1.7
2020-Jan-21 22:30 252 0 gusting 3 1.7
2020-Jan-21 22:25 247 0 gusting 2 1.7
2020-Jan-21 22:20 237 0 gusting 3 1.7
2020-Jan-21 22:15 236 1 gusting 3 1.7
2020-Jan-21 22:10 235 1 gusting 4 1.7
2020-Jan-21 22:05 239 1 gusting 4 1.7
2020-Jan-21 22:00 264 1 gusting 4 1.7
2020-Jan-21 21:55 265 1 gusting 6 1.7
2020-Jan-21 21:50 263 2 gusting 6 1.7
2020-Jan-21 21:45 257 2 gusting 6 1.7
2020-Jan-21 21:40 250 1 gusting 6 1.7
2020-Jan-21 21:35 254 1 gusting 5 1.7
2020-Jan-21 21:30 263 1 gusting 5 1.7
2020-Jan-21 21:25 270 0 gusting 3 1.7
2020-Jan-21 21:20 250 0 gusting 3 1.7
2020-Jan-21 21:15 255 0 gusting 3 2.2
2020-Jan-21 21:10 259 0 gusting 3 1.7
2020-Jan-21 21:05 247 0 gusting 3 1.7
2020-Jan-21 21:00 257 0 gusting 3 1.7
2020-Jan-21 20:55 263 1 gusting 3 1.7
2020-Jan-21 20:50 249 1 gusting 4 1.7
2020-Jan-21 20:45 254 1 gusting 4 2.2
2020-Jan-21 20:40 270 0 gusting 3 2.2
2020-Jan-21 20:35 264 0 gusting 3 2.2
2020-Jan-21 20:30 251 1 gusting 3 2.2
2020-Jan-21 20:25 250 1 gusting 4 2.2
2020-Jan-21 20:20 243 1 gusting 5 2.2
2020-Jan-21 20:15 237 1 gusting 5 2.2
2020-Jan-21 20:10 245 1 gusting 3 2.2
2020-Jan-21 20:05 258 0 gusting 3 2.2
2020-Jan-21 20:00 259 1 gusting 3 2.2
2020-Jan-21 19:55 251 1 gusting 3 2.2
2020-Jan-21 19:50 254 1 gusting 3 2.2
2020-Jan-21 19:45 263 0 gusting 3 2.8
2020-Jan-21 19:40 272 0 gusting 3 2.8
2020-Jan-21 19:35 273 0 gusting 5 2.8
2020-Jan-21 19:30 257 0 gusting 5 2.8
2020-Jan-21 19:25 260 1 gusting 5 3.3
2020-Jan-21 19:20 280 1 gusting 5 2.8
2020-Jan-21 19:15 282 0 gusting 4 2.8
2020-Jan-21 19:10 259 0 gusting 3 2.8
2020-Jan-21 19:05 244 1 gusting 3 2.8
2020-Jan-21 19:00 266 1 gusting 3 2.8
2020-Jan-21 18:55 292 0 gusting 2 2.8
2020-Jan-21 18:50 233 0 gusting 3 2.8
2020-Jan-21 18:45 229 1 gusting 3 2.8
2020-Jan-21 18:40 238 1 gusting 3 3.3
2020-Jan-21 18:35 248 0 gusting 3 3.3
2020-Jan-21 18:30 248 0 gusting 3 3.3
2020-Jan-21 18:25 248 0 gusting 3 3.3
2020-Jan-21 18:20 236 1 gusting 5 3.3
2020-Jan-21 18:15 225 2 gusting 5 3.3
2020-Jan-21 18:10 236 2 gusting 6 3.3
2020-Jan-21 18:05 253 1 gusting 6 3.3
2020-Jan-21 18:00 256 1 gusting 3 3.3
2020-Jan-21 17:55 248 1 gusting 4 3.3
2020-Jan-21 17:50 244 1 gusting 4 3.9
2020-Jan-21 17:45 245 1 gusting 4 3.9
2020-Jan-21 17:40 250 1 gusting 5 4.4
2020-Jan-21 17:35 251 1 gusting 5 3.9
2020-Jan-21 17:30 255 1 gusting 5 3.9
2020-Jan-21 17:25 249 1 gusting 3 3.9
2020-Jan-21 17:20 241 1 gusting 3 4.4
2020-Jan-21 17:15 246 1 gusting 3 4.4
2020-Jan-21 17:10 242 1 gusting 3 4.4
2020-Jan-21 17:05 227 2 gusting 4 4.4
2020-Jan-21 17:00 218 2 gusting 5 4.4
2020-Jan-21 16:55 213 2 gusting 5 4.4
2020-Jan-21 16:50 224 2 gusting 4 4.4
2020-Jan-21 16:45 230 2 gusting 4 5.0
2020-Jan-21 16:40 225 2 gusting 4 5.6
2020-Jan-21 16:35 225 2 gusting 4 5.6
2020-Jan-21 16:30 229 2 gusting 5 5.6
2020-Jan-21 16:25 243 2 gusting 5 6.1
2020-Jan-21 16:20 261 1 gusting 3 6.7
2020-Jan-21 16:15 276 1 gusting 4 6.7
2020-Jan-21 16:10 285 1 gusting 4 6.7
2020-Jan-21 16:05 288 1 gusting 4 6.7
2020-Jan-21 16:00 302 0 gusting 3 6.7
2020-Jan-21 15:55 300 1 gusting 3 6.7
2020-Jan-21 15:50 296 1 gusting 6 6.7
2020-Jan-21 15:45 294 1 gusting 7 6.7
2020-Jan-21 15:40 294 2 gusting 7 6.7
2020-Jan-21 15:35 292 2 gusting 6 6.7
2020-Jan-21 15:30 298 2 gusting 6 6.7
2020-Jan-21 15:25 305 2 gusting 6 6.7
2020-Jan-21 15:20 301 2 gusting 7 6.7
2020-Jan-21 15:15 306 2 gusting 7 7.2
2020-Jan-21 15:10 314 3 gusting 8 7.2
2020-Jan-21 15:05 311 4 gusting 9 7.2
2020-Jan-21 15:00 311 4 gusting 9 7.2
2020-Jan-21 14:55 313 3 gusting 8 7.2
2020-Jan-21 14:50 307 3 gusting 9 7.2
2020-Jan-21 14:45 312 5 gusting 10 7.2
2020-Jan-21 14:40 313 4 gusting 11 7.8
2020-Jan-21 14:35 311 4 gusting 11 7.8
2020-Jan-21 14:30 317 5 gusting 11 7.8
2020-Jan-21 14:25 315 5 gusting 11 7.8
2020-Jan-21 14:20 312 5 gusting 11 7.8
2020-Jan-21 14:15 312 5 gusting 9 7.8
2020-Jan-21 14:10 327 5 gusting 11 7.8
2020-Jan-21 14:05 329 6 gusting 11 8.3
2020-Jan-21 14:00 314 5 gusting 12 8.3
2020-Jan-21 13:55 324 4 gusting 12 8.3
2020-Jan-21 13:50 327 5 gusting 10 8.3
2020-Jan-21 13:45 311 5 gusting 11 8.3
2020-Jan-21 13:40 311 5 gusting 11 8.3
2020-Jan-21 13:35 310 5 gusting 13 8.3
2020-Jan-21 13:30 315 5 gusting 13 8.3
2020-Jan-21 13:25 317 6 gusting 14 8.3
2020-Jan-21 13:20 317 6 gusting 16 8.3
2020-Jan-21 13:15 320 6 gusting 16 7.8
2020-Jan-21 13:10 318 6 gusting 16 8.3
2020-Jan-21 13:05 322 6 gusting 16 8.3
2020-Jan-21 13:00 331 6 gusting 16 8.3
2020-Jan-21 12:55 329 6 gusting 13 8.3
2020-Jan-21 12:50 319 6 gusting 13 8.3
2020-Jan-21 12:45 323 5 gusting 11 8.3
2020-Jan-21 12:40 323 6 gusting 13 7.8
2020-Jan-21 12:35 324 6 gusting 13 7.8
2020-Jan-21 12:30 334 6 gusting 13 7.8
2020-Jan-21 12:25 332 7 gusting 14 7.8
2020-Jan-21 12:20 325 7 gusting 15 7.8
2020-Jan-21 12:15 318 7 gusting 15 7.8
2020-Jan-21 12:10 320 7 gusting 15 7.8
2020-Jan-21 12:05 327 7 gusting 14 7.8
2020-Jan-21 12:00 327 6 gusting 13 7.8
2020-Jan-21 11:55 324 6 gusting 13 7.8
2020-Jan-21 11:50 319 6 gusting 13 7.8
2020-Jan-21 11:45 323 5 gusting 12 7.8
2020-Jan-21 11:40 329 5 gusting 12 7.2
2020-Jan-21 11:35 335 5 gusting 12 7.2
2020-Jan-21 11:30 334 5 gusting 12 7.2
2020-Jan-21 11:25 325 4 gusting 11 7.8
2020-Jan-21 11:20 331 4 gusting 9 7.2
2020-Jan-21 11:15 324 5 gusting 9 7.2
2020-Jan-21 11:10 322 5 gusting 13 7.2
2020-Jan-21 11:05 331 6 gusting 13 7.2
2020-Jan-21 11:00 331 5 gusting 11 7.2
2020-Jan-21 10:55 321 6 gusting 12 7.2
2020-Jan-21 10:50 335 6 gusting 12 7.2
2020-Jan-21 10:45 339 6 gusting 13 7.2
2020-Jan-21 10:40 324 5 gusting 13 7.8
2020-Jan-21 10:35 329 4 gusting 12 7.8
2020-Jan-21 10:30 345 5 gusting 10 7.8
2020-Jan-21 10:25 341 6 gusting 14 7.8
2020-Jan-21 10:20 330 6 gusting 14 7.8
2020-Jan-21 10:15 319 6 gusting 13 7.8
2020-Jan-21 10:10 328 5 gusting 13 7.8
2020-Jan-21 10:05 328 6 gusting 12 7.8
2020-Jan-21 10:00 326 6 gusting 13 7.8
2020-Jan-21 09:55 336 6 gusting 14 7.8
2020-Jan-21 09:50 332 6 gusting 14 7.8
2020-Jan-21 09:45 333 5 gusting 13 7.8
2020-Jan-21 09:40 332 6 gusting 11 7.8
2020-Jan-21 09:35 324 6 gusting 12 7.8
2020-Jan-21 09:30 323 6 gusting 13 7.2
2020-Jan-21 09:25 325 6 gusting 13 7.2
2020-Jan-21 09:20 329 6 gusting 13 7.2
2020-Jan-21 09:15 332 6 gusting 13 7.2
2020-Jan-21 09:10 332 6 gusting 13 7.2
2020-Jan-21 09:05 334 6 gusting 13 7.2
2020-Jan-21 09:00 332 6 gusting 13 7.2
2020-Jan-21 08:55 334 6 gusting 13 7.2
2020-Jan-21 08:50 323 6 gusting 12 7.2
2020-Jan-21 08:45 325 6 gusting 12 7.2
2020-Jan-21 08:40 339 6 gusting 15 7.2
2020-Jan-21 08:35 336 6 gusting 15 7.2
2020-Jan-21 08:30 333 5 gusting 15 7.2
2020-Jan-21 08:25 329 5 gusting 13 7.2
2020-Jan-21 08:20 326 6 gusting 13 7.2
2020-Jan-21 08:15 332 6 gusting 10 7.2
2020-Jan-21 08:10 334 5 gusting 9 7.2
2020-Jan-21 08:05 336 6 gusting 13 7.2
2020-Jan-21 08:00 338 6 gusting 14 7.2
2020-Jan-21 07:55 339 6 gusting 14 7.2
2020-Jan-21 07:50 327 6 gusting 13 7.2
2020-Jan-21 07:45 333 6 gusting 13 7.2
2020-Jan-21 07:40 349 6 gusting 13 7.2
2020-Jan-21 07:35 338 6 gusting 11 7.2
2020-Jan-21 07:30 322 6 gusting 11 7.2
2020-Jan-21 07:25 320 6 gusting 13 7.2
2020-Jan-21 07:20 320 5 gusting 13 7.2
2020-Jan-21 07:15 314 4 gusting 11 7.2
2020-Jan-21 07:10 322 5 gusting 10 7.2
2020-Jan-21 07:05 328 5 gusting 10 7.2
2020-Jan-21 07:00 332 5 gusting 10 7.2
2020-Jan-21 06:55 335 5 gusting 10 7.2
2020-Jan-21 06:50 327 4 gusting 9 7.2
2020-Jan-21 06:45 323 4 gusting 9 7.2
2020-Jan-21 06:40 326 4 gusting 11 7.2
2020-Jan-21 06:35 333 5 gusting 11 6.7
2020-Jan-21 06:30 351 4 gusting 10 6.7
2020-Jan-21 06:25 349 4 gusting 9 6.7
2020-Jan-21 06:20 334 4 gusting 11 6.7
2020-Jan-21 06:15 333 6 gusting 11 6.7
2020-Jan-21 06:10 326 5 gusting 9 6.7
2020-Jan-21 06:05 320 5 gusting 13 6.7
2020-Jan-21 06:00 322 5 gusting 13 6.7
2020-Jan-21 05:55 331 6 gusting 11 6.7
2020-Jan-21 05:50 334 5 gusting 11 6.7
2020-Jan-21 05:45 325 4 gusting 11 6.7
2020-Jan-21 05:40 322 5 gusting 10 6.7
2020-Jan-21 05:35 327 5 gusting 10 7.2
2020-Jan-21 05:30 324 5 gusting 9 7.2
2020-Jan-21 05:25 316 5 gusting 7 7.2
2020-Jan-21 05:20 317 5 gusting 9 7.2
2020-Jan-21 05:15 318 5 gusting 9 7.2
2020-Jan-21 05:10 323 4 gusting 9 7.2
2020-Jan-21 05:05 331 4 gusting 9 7.2
2020-Jan-21 05:00 336 5 gusting 9 7.2
2020-Jan-21 04:55 338 5 gusting 12 7.2
2020-Jan-21 04:50 334 4 gusting 12 7.2
2020-Jan-21 04:45 310 4 gusting 10 7.2
2020-Jan-21 04:40 302 5 gusting 10 7.2
2020-Jan-21 04:35 328 5 gusting 10 7.2
2020-Jan-21 04:30 339 4 gusting 9 7.2
2020-Jan-21 04:25 332 5 gusting 10 7.2
2020-Jan-21 04:20 330 6 gusting 14 7.2
2020-Jan-21 04:15 340 5 gusting 14 7.2
2020-Jan-21 04:10 341 5 gusting 13 7.2
2020-Jan-21 04:05 332 6 gusting 13 7.2
2020-Jan-21 04:00 334 6 gusting 13 7.2
2020-Jan-21 03:55 329 6 gusting 13 7.2
2020-Jan-21 03:50 325 5 gusting 10 7.2
2020-Jan-21 03:45 325 4 gusting 9 7.2
2020-Jan-21 03:40 314 5 gusting 10 7.2
2020-Jan-21 03:35 330 5 gusting 11 7.2
2020-Jan-21 03:30 348 5 gusting 11 7.2
2020-Jan-21 03:25 334 4 gusting 10 7.2
2020-Jan-21 03:20 328 5 gusting 10 7.2
2020-Jan-21 03:15 331 5 gusting 10 7.2
2020-Jan-21 03:10 323 5 gusting 9 7.2
2020-Jan-21 03:05 317 5 gusting 13 7.2
2020-Jan-21 03:00 319 6 gusting 13 7.2
2020-Jan-21 02:55 324 6 gusting 13 7.2
2020-Jan-21 02:50 322 6 gusting 13 7.2
2020-Jan-21 02:45 317 6 gusting 11 7.2
2020-Jan-21 02:40 309 6 gusting 11 7.2
2020-Jan-21 02:35 303 6 gusting 13 7.2
2020-Jan-21 02:30 302 6 gusting 13 7.2
2020-Jan-21 02:25 310 6 gusting 13 7.2
2020-Jan-21 02:20 325 6 gusting 13 7.2
2020-Jan-21 02:15 321 7 gusting 13 7.2
2020-Jan-21 02:10 321 6 gusting 13 7.2
2020-Jan-21 02:05 321 6 gusting 14 7.2
2020-Jan-21 02:00 311 6 gusting 17 7.2
2020-Jan-21 01:55 318 6 gusting 17 7.2
2020-Jan-21 01:50 326 6 gusting 12 7.2
2020-Jan-21 01:45 337 6 gusting 12 7.2
2020-Jan-21 01:40 343 6 gusting 13 7.2
2020-Jan-21 01:35 333 6 gusting 13 7.2
2020-Jan-21 01:30 334 6 gusting 13 7.2
2020-Jan-21 01:25 338 6 gusting 13 7.2
2020-Jan-21 01:20 337 6 gusting 13 7.2
2020-Jan-21 01:15 331 6 gusting 14 7.2
2020-Jan-21 01:10 325 6 gusting 14 7.2
2020-Jan-21 01:05 325 6 gusting 13 7.2
2020-Jan-21 01:00 329 6 gusting 13 7.2
2020-Jan-21 00:55 328 6 gusting 13 7.2
2020-Jan-21 00:50 331 6 gusting 14 7.2
2020-Jan-21 00:45 336 7 gusting 14 7.2
2020-Jan-21 00:40 334 6 gusting 13 7.2
2020-Jan-21 00:35 336 6 gusting 11 7.2
2020-Jan-21 00:30 327 6 gusting 12 7.2
2020-Jan-21 00:25 321 6 gusting 12 7.2
2020-Jan-21 00:20 321 6 gusting 11 7.2
2020-Jan-21 00:15 313 6 gusting 14 7.2
2020-Jan-21 00:10 317 6 gusting 14 7.8
2020-Jan-21 00:05 329 6 gusting 13 7.8
2020-Jan-21 00:00 329 6 gusting 13 7.8
2020-Jan-20 23:55 323 5 gusting 11 7.8
2020-Jan-20 23:50 331 6 gusting 12 7.8
2020-Jan-20 23:45 325 6 gusting 13 7.8
2020-Jan-20 23:40 316 6 gusting 13 7.8
2020-Jan-20 23:35 314 6 gusting 13 7.8
2020-Jan-20 23:30 313 5 gusting 13 7.8
2020-Jan-20 23:25 323 5 gusting 13 7.8
2020-Jan-20 23:20 326 6 gusting 13 7.8
2020-Jan-20 23:15 319 6 gusting 13 7.8
2020-Jan-20 23:10 312 6 gusting 13 7.8
2020-Jan-20 23:05 314 6 gusting 13 7.8
2020-Jan-20 23:00 320 6 gusting 12 7.8
2020-Jan-20 22:55 325 5 gusting 13 7.8
2020-Jan-20 22:50 327 5 gusting 13 7.8
2020-Jan-20 22:45 322 5 gusting 13 7.8
2020-Jan-20 22:40 326 5 gusting 11 7.8
2020-Jan-20 22:35 329 5 gusting 11 7.8
2020-Jan-20 22:30 335 5 gusting 13 7.8
2020-Jan-20 22:25 329 5 gusting 13 7.8
2020-Jan-20 22:20 322 5 gusting 13 7.8
2020-Jan-20 22:15 331 5 gusting 11 7.8
2020-Jan-20 22:10 335 6 gusting 13 7.8
2020-Jan-20 22:05 325 6 gusting 13 7.8
2020-Jan-20 22:00 335 6 gusting 13 7.8
2020-Jan-20 21:55 335 6 gusting 13 7.8
2020-Jan-20 21:50 322 6 gusting 12 7.8
2020-Jan-20 21:45 335 5 gusting 12 7.8
2020-Jan-20 21:40 336 5 gusting 10 7.8
2020-Jan-20 21:35 332 5 gusting 11 7.8
2020-Jan-20 21:30 340 6 gusting 11 7.8
2020-Jan-20 21:25 337 6 gusting 13 7.8
2020-Jan-20 21:20 324 6 gusting 13 7.8
2020-Jan-20 21:15 316 5 gusting 10 7.8
2020-Jan-20 21:10 320 5 gusting 11 7.8
2020-Jan-20 21:05 331 5 gusting 13 7.8
2020-Jan-20 21:00 340 6 gusting 14 7.8
2020-Jan-20 20:55 332 6 gusting 14 7.8
2020-Jan-20 20:50 324 5 gusting 13 7.8
2020-Jan-20 20:45 322 6 gusting 13 7.8
2020-Jan-20 20:40 321 7 gusting 14 7.8
2020-Jan-20 20:35 329 7 gusting 14 7.8
2020-Jan-20 20:30 332 6 gusting 13 7.8
2020-Jan-20 20:25 338 6 gusting 13 7.8
2020-Jan-20 20:20 338 6 gusting 14 7.8
2020-Jan-20 20:15 329 6 gusting 14 7.8
2020-Jan-20 20:10 341 6 gusting 14 7.8
2020-Jan-20 20:05 338 6 gusting 13 7.8
2020-Jan-20 20:00 338 6 gusting 13 7.8
2020-Jan-20 19:55 344 6 gusting 12 7.8
2020-Jan-20 19:50 332 6 gusting 12 7.8
2020-Jan-20 19:45 343 4 gusting 12 7.8
2020-Jan-20 19:40 346 5 gusting 11 7.8
2020-Jan-20 19:35 347 5 gusting 11 7.8
2020-Jan-20 19:30 352 4 gusting 11 7.8
2020-Jan-20 19:25 343 4 gusting 11 7.8
2020-Jan-20 19:20 344 4 gusting 8 7.2
2020-Jan-20 19:15 345 3 gusting 6 7.2
2020-Jan-20 19:10 331 2 gusting 6 7.2
2020-Jan-20 19:05 329 1 gusting 6 7.2
2020-Jan-20 19:00 335 1 gusting 4 7.2
2020-Jan-20 18:55 331 1 gusting 3 7.2
2020-Jan-20 18:50 330 1 gusting 3 7.2
2020-Jan-20 18:45 323 1 gusting 4 6.7
2020-Jan-20 18:40 331 1 gusting 5 6.7
2020-Jan-20 18:35 342 1 gusting 5 6.7
2020-Jan-20 18:30 331 2 gusting 6 6.7
2020-Jan-20 18:25 322 2 gusting 6 6.7
2020-Jan-20 18:20 339 2 gusting 5 6.7
2020-Jan-20 18:15 348 2 gusting 4 6.7
2020-Jan-20 18:10 327 2 gusting 5 6.7
2020-Jan-20 18:05 329 2 gusting 5 6.7
2020-Jan-20 18:00 328 1 gusting 4 6.7
2020-Jan-20 17:55 292 1 gusting 4 6.7
2020-Jan-20 17:50 291 1 gusting 5 6.7
2020-Jan-20 17:45 301 0 gusting 5 6.7
2020-Jan-20 17:40 305 0 gusting 4 6.7
2020-Jan-20 17:35 327 1 gusting 4 6.7
2020-Jan-20 17:30 346 1 gusting 4 6.7
2020-Jan-20 17:25 344 2 gusting 6 6.7
2020-Jan-20 17:20 323 2 gusting 6 6.7
2020-Jan-20 17:15 309 1 gusting 4 6.7
2020-Jan-20 17:10 303 1 gusting 4 6.7
2020-Jan-20 17:05 290 0 gusting 4 6.7
2020-Jan-20 17:00 311 0 gusting 4 6.7
2020-Jan-20 16:55 329 1 gusting 5 6.7
2020-Jan-20 16:50 333 2 gusting 6 6.7
2020-Jan-20 16:45 330 3 gusting 7 6.7
2020-Jan-20 16:40 327 4 gusting 7 6.7
2020-Jan-20 16:35 321 4 gusting 10 7.2
2020-Jan-20 16:30 315 3 gusting 10 7.2
2020-Jan-20 16:25 313 1 gusting 6 7.2
2020-Jan-20 16:20 307 1 gusting 4 6.7
2020-Jan-20 16:15 311 1 gusting 5 6.7
2020-Jan-20 16:10 330 1 gusting 5 6.7
2020-Jan-20 16:05 341 1 gusting 4 6.7
2020-Jan-20 16:00 346 1 gusting 6 6.7
2020-Jan-20 15:55 337 2 gusting 6 6.7
2020-Jan-20 15:50 322 2 gusting 6 6.7
2020-Jan-20 15:45 324 2 gusting 5 6.7
2020-Jan-20 15:40 321 2 gusting 6 6.7
2020-Jan-20 15:35 327 2 gusting 6 6.7
2020-Jan-20 15:30 348 2 gusting 6 6.7
2020-Jan-20 15:25 359 2 gusting 6 6.7
2020-Jan-20 15:20 351 2 gusting 6 6.7
2020-Jan-20 15:15 336 2 gusting 6 6.7
2020-Jan-20 15:10 344 2 gusting 7 6.7
2020-Jan-20 15:05 355 3 gusting 7 6.7
2020-Jan-20 15:00 338 3 gusting 7 6.7
2020-Jan-20 14:55 311 3 gusting 7 6.7
2020-Jan-20 14:50 328 3 gusting 8 6.7
2020-Jan-20 14:45 337 3 gusting 8 7.2
2020-Jan-20 14:40 330 3 gusting 9 7.2
2020-Jan-20 14:35 329 4 gusting 9 7.2
2020-Jan-20 14:30 332 3 gusting 9 6.7
2020-Jan-20 14:25 338 4 gusting 9 6.7
2020-Jan-20 14:20 325 5 gusting 12 6.7
2020-Jan-20 14:15 314 4 gusting 12 6.7
2020-Jan-20 14:10 322 4 gusting 9 6.7
2020-Jan-20 14:05 331 4 gusting 8 6.7
2020-Jan-20 14:00 325 5 gusting 8 6.7